This demonstration page uses our WeatherBlox Daily Observations layout. Learn more.

Left ArrowRight Arrow

Hourly Observations for October 22, 2022

Temp ( °F °C ) Dew Point ( °F °C ) Humidity (%) Winds ( mph kmh ) Pressure ( in mb ) Visibility ( mi km ) Precip ( " mm )
12:01 am 00:01 Cloudy with Light Rain 43 6.1 42 5.6 97 97 Calm 29.54 1000 N/A 0.01 0.13
12:10 am 00:10 Cloudy with Light Rain 43 6.1 42 5.6 97 97 Calm 29.54 1000 N/A 0.01 0.13
12:20 am 00:20 Cloudy 43 6.1 42 5.6 97 97 Calm 29.54 1000 N/A 0.01 0.25
12:37 am 00:37 Cloudy with Light Rain 43 6.1 42 5.6 97 97 Calm 29.55 1001 N/A 0.02 0.51
12:53 am 00:53 Cloudy with Light Rain 43 6.1 42 5.6 97 97 Calm 29.52 1000 N/A 0.03 0.76
1:42 am 01:42 Cloudy 43 6.1 42 5.6 97 97 Calm 29.52 1000 N/A 0.01 0.13
1:53 am 01:53 Cloudy 43 6.1 42 5.6 97 97 Calm 29.50 999 N/A 0.01 0.13
2:53 am 02:53 Cloudy 44 6.7 42 5.6 93 93 E 3 6 29.49 999 N/A 0.00 0.00
3:45 am 03:45 Cloudy 42 5.6 41 5 96 96 ENE 9 15 29.50 999 N/A 0.00 0.00
3:53 am 03:53 Cloudy 42 5.6 41 5 96 96 ENE 12 19 29.48 998 N/A 0.00 0.00
4:53 am 04:53 Cloudy 42 5.6 40 4.4 92 92 E 10 17 29.48 998 N/A 0.00 0.00
5:05 am 05:05 Cloudy 42 5.6 40 4.4 92 92 E 12 19 29.49 999 N/A 0.00 0.00
5:30 am 05:30 Cloudy 41 5 40 4.4 96 96 ENE 10 17 29.50 999 N/A 0.00 0.00
5:53 am 05:53 Cloudy 41 5 40 4.4 96 96 ENE 10 17 29.48 998 N/A 0.00 0.00
6:53 am 06:53 Cloudy 41 5 40 4.4 96 96 ENE 12 19 29.48 998 N/A 0.00 0.00
7:53 am 07:53 Cloudy 41 5 40 4.4 96 96 E 15 24 29.48 998 N/A 0.00 0.00
8:53 am 08:53 Cloudy 41 5 40 4.4 96 96 E 15 24 29.49 999 N/A 0.00 0.00
9:32 am 09:32 Cloudy 41 5 41 5 100 100 E 14 22 29.51 999 N/A 0.00 0.00
9:48 am 09:48 Cloudy 43 6 41 5 93 93 E 12 19 29.51 999 N/A 0.00 0.00
9:53 am 09:53 Cloudy 42 5.6 41 5 96 96 E 12 19 29.49 999 N/A 0.00 0.00
10:53 am 10:53 Cloudy 41 5 41 5 100 100 E 13 20 29.51 999 N/A 0.00 0.00
11:53 am 11:53 Cloudy 41 5 41 5 100 100 E 13 20 29.50 999 N/A 0.00 0.00
12:53 pm 12:53 Cloudy with Light Rain 42 5.6 41 5 96 96 E 13 20 29.49 999 N/A 0.02 0.51
1:53 pm 13:53 Cloudy with Light Rain 42 5.6 41 5 96 96 ENE 13 20 29.49 999 N/A 0.05 1.27
2:06 pm 14:06 Cloudy with Light Rain 42 5.6 41 5 96 96 ENE 12 19 29.50 999 N/A 0.01 0.25
2:32 pm 14:32 Cloudy with Light Rain 42 5.6 41 5 96 96 ENE 12 19 29.50 999 N/A 0.02 0.51
2:53 pm 14:53 Cloudy with Light Rain 42 5.6 41 5 96 96 ENE 9 15 29.49 999 N/A 0.04 1.02
3:09 pm 15:09 Cloudy with Light Rain 42 5.6 41 5 96 96 ENE 10 17 29.50 999 N/A 0.02 0.51
3:53 pm 15:53 Cloudy with Light Rain 42 5.6 41 5 96 96 NE 8 13 29.50 999 N/A 0.07 1.78
4:05 pm 16:05 Cloudy with Light Rain 42 5.6 41 5 96 96 NE 9 15 29.51 999 N/A 0.01 0.25
4:24 pm 16:24 Cloudy with Light Rain 42 5.6 41 5 96 96 NE 10 17 29.52 1000 N/A 0.03 0.76
4:42 pm 16:42 Cloudy with Light Rain 42 5.6 41 5 96 96 NE 12 19 29.52 1000 N/A 0.05 1.27
4:53 pm 16:53 Cloudy with Light Rain 42 5.6 41 5 96 96 NE 12 19 29.51 999 N/A 0.06 1.52
5:15 pm 17:15 Cloudy with Light Rain 42 5.6 40 4.4 92 92 NE 13 20 29.53 1000 N/A 0.03 0.76
5:48 pm 17:48 Cloudy with Light Rain 43 6 39 4 87 87 NE 13 20 29.54 1000 N/A 0.05 1.27
5:59 pm 17:59 Cloudy with Light Rain 42 5.6 40 4.4 92 92 ENE 13 20 29.55 1001 N/A 0.01 0.25
6:41 pm 18:41 Cloudy with Light Rain 42 5.6 40 4.4 92 92 ENE 16 26 29.56 1001 N/A 0.04 1.02
6:53 pm 18:53 Cloudy with Light Rain 42 5.6 40 4.4 92 92 ENE 17 28 29.56 1001 N/A 0.04 1.02
7:53 pm 19:53 Cloudy with Light Rain 41 5 38 3.3 89 89 ENE 14 22 29.57 1002 N/A 0.06 1.52
8:08 pm 20:08 Cloudy with Light Rain 40 4.4 39 3.9 97 97 ENE 15 24 29.59 1002 N/A 0.01 0.25
8:19 pm 20:19 Cloudy with Light Rain 40 4.4 38 3.3 93 93 ENE 16 26 29.60 1003 N/A 0.02 0.51
8:41 pm 20:41 Cloudy with Light Rain 40 4.4 38 3.3 93 93 ENE 16 26 29.61 1003 N/A 0.04 1.02
8:53 pm 20:53 Cloudy with Light Rain 40 4.4 38 3.3 93 93 ENE 16 26 29.60 1002 N/A 0.06 1.52
9:03 pm 21:03 Cloudy with Light Rain 40 4.4 38 3.3 93 93 ENE 12 19 29.61 1003 N/A 0.01 0.25
9:12 pm 21:12 Cloudy with Light Rain 40 4.4 38 3.3 93 93 NE 13 20 29.61 1003 N/A 0.02 0.51
9:53 pm 21:53 Cloudy with Light Rain 39 3.9 37 2.8 93 93 NE 15 24 29.61 1003 N/A 0.08 2.03
10:09 pm 22:09 Cloudy with Light Rain 38 3.3 37 2.8 97 97 NE 16 26 29.63 1004 N/A 0.02 0.51
10:53 pm 22:53 Cloudy with Light Rain 37 2.8 35 1.7 92 92 NE 17 28 29.62 1003 N/A 0.07 1.78
11:53 pm 23:53 Cloudy 36 2.2 34 1.1 92 92 NE 14 22 29.63 1003 N/A 0.01 0.25

Powered by AerisWeather